This is the latest recevied weather packets stored in our database for station/object TB1YZC-13. If no packets are shown the sender has not sent any weather packets the latest 10 day(s).
| Time | Temp. | Humidity | Pressure | Rain* | Wind** | Luminosity | Snow |
|---|---|---|---|---|---|---|---|
| 1788242641 | 23.33° C | 81% | 1018.4 hPa | - | - | - | - |
| 1788242038 | 23.33° C | 83% | 1018.3 hPa | - | - | - | - |
| 1788241434 | 23.33° C | 84% | 1018.4 hPa | - | - | - | - |
| 1788240831 | 22.78° C | 86% | 1018.4 hPa | - | - | - | - |
| 1788240228 | 22.78° C | 88% | 1018.4 hPa | - | - | - | - |
| 1788239624 | 21.67° C | 89% | 1018.4 hPa | - | - | - | - |
| 1788239022 | 21.67° C | 89% | 1018.4 hPa | - | - | - | - |
| 1788238418 | 21.67° C | 89% | 1018.3 hPa | - | - | - | - |
| 1788237815 | 21.67° C | 89% | 1018.2 hPa | - | - | - | - |
| 1788237212 | 21.11° C | 92% | 1018.2 hPa | - | - | - | - |
| 1788236609 | 20.56° C | 94% | 1018.2 hPa | - | - | - | - |
| 1788236005 | 20° C | 97% | 1018.1 hPa | - | - | - | - |
| 1788235402 | 18.89° C | 98% | 1018.1 hPa | - | - | - | - |
| 1788234799 | 18.89° C | 98% | 1018.1 hPa | - | - | - | - |
| 1788234196 | 18.89° C | 98% | 1018.1 hPa | - | - | - | - |
| 1788233593 | 18.33° C | 97% | 1018.2 hPa | - | - | - | - |
| 1788232989 | 18.89° C | 97% | 1018.1 hPa | - | - | - | - |
| 1788232386 | 18.33° C | 97% | 1018 hPa | - | - | - | - |
| 1788231800 | 18.33° C | 96% | 1018 hPa | - | - | - | - |
| 1788231180 | 18.33° C | 96% | 1017.9 hPa | - | - | - | - |
| 1788230576 | 18.89° C | 94% | 1018 hPa | - | - | - | - |
| 1788229974 | 18.89° C | 93% | 1018 hPa | - | - | - | - |
| 1788229370 | 19.44° C | 91% | 1018 hPa | - | - | - | - |
| 1788228767 | 19.44° C | 92% | 1017.9 hPa | - | - | - | - |
| 1788228164 | 18.89° C | 94% | 1018 hPa | - | - | - | - |
* Rain since midnight (hover to see other rain measurements)
** Current wind speed in m/s (hover to see current wind gust speed)